Mauston, WI

1:18 PM CDT on April 29, 2017 (GMT -0500)
Juneau County Weather | | Change Station

Elev 873 ft 43.80 °N, 90.07 °W | Updated 4 seconds ago

Clear
Clear
46.1 °F
Feels Like 42 °F
N
7.8
Wind Variable Wind from East
Gusts 12.7 mph

Today
High -- | Low -- °F
--% Chance of Precip.
Yesterday
High -- | Low -- °F
Precip. -- in
Pressure 30.28 in
Visibility 10.0 miles
Clouds Scattered Clouds 15000 ft
Overcast 20000 ft
Windchill 42 °F
Dew Point 32 °F
Humidity 58%
Rainfall 0.00 in
Snow Depth Not available.
5:54 AM 8:01 PM
Waxing Crescent, 15% visible
METAR KVOK 291758Z 06011KT 10SM SCT150 OVC200 08/M02 A3025 RMK AO2A SLP253 58001
Pressure 30.28 in
Visibility 10.0 miles
Clouds Scattered Clouds 15000 ft
Overcast 20000 ft
Windchill 42 °F
Dew Point 32 °F
Humidity 58%
Rainfall 0.00 in
Snow Depth Not available.
5:54 AM 8:01 PM
Waxing Crescent, 15% visible
METAR KVOK 291758Z 06011KT 10SM SCT150 OVC200 08/M02 A3025 RMK AO2A SLP253 58001

Get Severe Weather Alerts

Thanks for signing up!

Be on the lookout for a verification email in your inbox.

You'll start receiving the daily forecast at 8 AM.

×

10-Day Weather Forecast

Almanac

Astronomy

Apr. 29, 2017 Rise Set
Actual Time
Civil Twilight
Nautical Twilight
Astronomical Twilight
Moon
Length of Visible Light
Length of Day
Tomorrow will be .
, % of the Moon is Illuminated

Today's Extremes

State Highs State Lows

Community

WunderPhotos

WunderBlog® & News

Nearby

Air Quality

  Air Quality AQ Index Pollutant
Not available.

Snow Depth

Station Depth Elevation

Earthquake Activity

City Distance Mag. Time & Date
Minimum magnitude displayed is 2.5.

Coastal Water Temperatures

Place Temperature

Stations

Nearby Weather Stations

Station Location Temp. Windchill Dew Point Humidity Wind Precip. Elev Updated Type
                   

Watches & Warnings

There are currently no watches in effect.